[[{"header":{"parameterUnit":"m.s-1","parameterCategory":1,"la1":30.2991,"la2":30.254,"lo1":-89.0895,"lo2":-89.0444,"dy":0.0017,"dx":0.0017,"nx":28,"ny":28,"refTime":"2025-07-15T09:00:00:Z","depth":0,"parameterNumber":2,"parameterNumberName":"U-component_of_WINDS"},"data":[0,0,0,0,0,0,0,0,0,0,0,0,0,0,0,0,0,0,0,0,0,0,0,0,0,0,0,0,0,0,0,0,0,0,0,0,0,0,0,0,0,0,0,0,0,0,0,0,0,0,0,0,0,0,0,0,0,0,1.6188,1.6189,0,1.6342,1.6343,1.6345,1.6322,1.632,1.6317,1.6315,1.648,1.6487,1.6493,0,0,0,0,0,0,0,0,0,0,0,0,0,1.5882,1.5888,1.6187,1.6189,1.6191,1.6341,1.6343,1.6345,1.6323,1.632,1.6317,1.6314,1.6478,1.6486,1.6494,0,0,0,0,0,0,0,0,0,0,0,0,0,1.6024,1.589,1.6187,1.6198,1.62,1.6341,1.6343,1.6346,1.6324,1.632,1.6316,1.6312,1.6475,1.6485,1.6495,1.6637,0,0,1.6527,1.6531,0,0,0,0,0,0,0,0,1.6016,1.6035,1.6194,1.6197,1.62,1.6309,1.6296,1.6444,1.6325,1.6277,1.6315,1.631,1.6427,1.6441,1.6478,1.6645,1.6652,1.6527,1.6534,1.6538,1.6541,0,0,0,0,0,0,0,1.6006,1.6028,1.6249,1.6197,1.62,1.6198,1.6214,1.6324,1.6372,1.6281,1.628,1.6298,1.6428,1.6469,1.6482,1.6654,1.6527,1.6536,1.6543,1.6547,1.6948,1.6953,0,0,0,0,0,0,1.5992,1.602,1.6244,1.6253,1.6096,1.6206,1.6224,1.6278,1.6371,1.6381,1.6301,1.6296,1.6453,1.647,1.6488,1.6662,1.6538,1.6548,1.6553,1.6944,1.6949,1.6954,0,0,0,0,0,0,1.5985,1.6012,1.6237,1.6136,1.6165,1.6216,1.6277,1.6283,1.6324,1.6386,1.6395,1.6333,1.6451,1.6473,1.66,1.6668,1.6552,1.6562,1.6939,1.6946,1.6952,1.7011,0,0,0,0,0,0,1.5977,1.601,1.6062,1.6138,1.617,1.6345,1.6281,1.6289,1.6341,1.6336,1.6419,1.6429,1.6449,1.6585,1.6611,1.668,1.657,1.6933,1.6942,1.695,1.7003,1.7019,1.7032,0,0,0,0,0,1.5966,1.6073,1.6065,1.6092,1.6236,1.6349,1.6368,1.6387,1.6346,1.6401,1.6441,1.6426,1.6656,1.6598,1.6627,1.67,1.6929,1.6939,1.6949,1.6997,1.7016,1.7032,0,0,0,0,0,0,1.6007,1.6083,1.6075,1.6209,1.6272,1.6344,1.6414,1.6406,1.6484,1.6476,1.6499,1.6518,1.6647,1.6686,1.6621,1.6844,1.6787,1.6803,1.6814,1.6832,1.6847,1.6835,1.6578,0,0,0,0,0,1.6031,1.6113,1.6177,1.629,1.6322,1.6362,1.6412,1.6421,1.6489,1.6516,1.6565,1.6634,1.6721,1.6779,1.6863,1.7008,1.7028,1.7073,1.7088,1.7099,1.7114,1.7197,1.7219,1.6988,1.6988,1.6987,0,0,1.6082,1.6135,1.6186,1.6299,1.6349,1.6437,1.6385,1.648,1.6546,1.6531,1.6654,1.6693,1.6771,1.6908,1.6971,1.6945,1.7182,1.7112,1.7121,1.7129,1.721,1.7231,1.7251,1.6995,1.6993,1.6992,0,0,1.6222,1.6268,1.6368,1.642,1.6495,1.6522,1.6546,1.662,1.6645,1.6768,1.6759,1.684,1.699,1.7046,1.7095,1.7258,1.7249,1.7285,1.7361,1.7442,1.746,1.7477,1.7538,1.7559,1.7299,1.7299,1.7299,0,1.6277,1.6406,1.6422,1.6518,1.657,1.6558,1.6662,1.6712,1.6812,1.685,1.6817,1.7007,1.7058,1.721,1.725,1.7289,1.732,1.7276,1.7456,1.7473,1.7488,1.7546,1.7569,1.7303,1.7302,1.7302,1.7302,0,1.6472,1.6563,1.6635,1.673,1.679,1.689,1.6923,1.6982,1.6987,1.7018,1.7146,1.7207,1.7304,1.7341,1.7347,1.7495,1.7476,1.745,1.7394,1.7514,1.7569,1.7591,1.7309,1.7307,1.7306,1.7305,0,0,1.6642,1.6745,1.6771,1.6816,1.6899,1.6971,1.7071,1.7165,1.7216,1.7287,1.7374,1.7501,1.7478,1.7533,1.7546,1.7616,1.7745,1.7582,1.7584,1.7612,1.7916,1.7936,1.7962,1.7738,1.7743,1.7746,1.791,0,1.6791,1.6966,1.6983,1.7141,1.7227,1.7218,1.7306,1.7369,1.7401,1.7481,1.7517,1.7608,1.7569,1.7603,1.7672,1.7714,1.7807,1.7703,1.7823,1.7827,1.7805,1.799,1.8012,1.8164,1.7931,1.7935,1.7938,0,1.6988,1.7063,1.7228,1.7302,1.7339,1.7417,1.7506,1.758,1.7653,1.7672,1.7734,1.7737,1.7844,1.7783,1.7933,1.7862,1.7912,1.7941,1.7947,1.7961,1.7891,1.8011,1.8212,1.8236,1.7972,1.7969,1.7966,0,1.7098,1.724,1.7358,1.7396,1.7484,1.754,1.758,1.7648,1.7704,1.7782,1.7819,1.7909,1.796,1.8031,1.806,1.8012,1.821,1.8149,1.8231,1.823,1.8274,1.8271,1.8488,1.8303,1.8303,1.8303,1.8302,0,1.7264,1.7367,1.7409,1.7482,1.7598,1.7618,1.7734,1.7771,1.7832,1.7915,1.7913,1.7991,1.8024,1.8108,1.8132,1.8254,1.8277,1.8297,1.8303,1.8298,1.8296,1.8333,1.8324,1.8309,1.8307,1.8306,1.8305,0,1.7407,1.7439,1.7568,1.7641,1.7662,1.7744,1.7808,1.7881,1.7912,1.8016,1.8042,1.8093,1.8192,1.8227,1.8349,1.8365,1.8507,1.8503,1.8483,1.8484,1.8565,1.8557,1.8815,1.8851,1.864,1.8642,1.8643,0,1.7511,1.759,1.7671,1.7726,1.7767,1.7854,1.7911,1.7935,1.7995,1.8084,1.8147,1.8245,1.8325,1.8485,1.8534,1.8627,1.8627,1.8711,1.8641,1.8635,1.8631,1.8627,1.8636,1.8724,1.8726,1.8728,1.8729,0,1.7695,1.7707,1.7787,1.7875,1.7942,1.8012,1.808,1.8125,1.8161,1.8228,1.8329,1.8391,1.8514,1.8613,1.8709,1.8753,1.8749,1.8751,1.8775,1.8772,1.8758,1.8769,1.852,1.8745,1.8744,1.8742,1.8742,1.8741,1.7823,1.7894,1.7962,1.8053,1.8107,1.8171,1.8243,1.8283,1.8366,1.8467,1.8477,1.8586,1.866,1.8788,1.8837,1.8924,1.8902,1.8936,1.8945,1.8954,1.8961,1.8742,1.8942,1.8941,1.8941,1.8941,1.894,0,1.8009,1.8052,1.8135,1.823,1.8303,1.8289,1.8364,1.8427,1.8522,1.8589,1.8668,1.8785,1.8881,1.8938,1.9035,1.9095,1.9096,1.912,1.9117,1.9128,1.8974,1.8945,1.9118,1.9118,1.9118,1.9118,1.9118,1.9118,1.8113,1.8232,1.8253,1.84,1.8444,1.8549,1.8594,1.8655,1.8708,1.8839,1.8918,1.8953,1.9018,1.912,1.9209,1.9223,1.926,1.9287,1.93,1.9156,1.9138,1.9121,1.9093,1.9295,1.9295,1.9447,1.9448,1.9449]},{"header":{"parameterUnit":"m.s-1","parameterCategory":1,"la1":30.2991,"la2":30.254,"lo1":-89.0895,"lo2":-89.0444,"dy":0.0017,"dx":0.0017,"nx":28,"ny":28,"refTime":"2025-07-15T09:00:00:Z","depth":0,"parameterNumber":3,"parameterNumberName":"V-component_of_WINDS"},"data":[0,0,0,0,0,0,0,0,0,0,0,0,0,0,0,0,0,0,0,0,0,0,0,0,0,0,0,0,0,0,0,0,0,0,0,0,0,0,0,0,0,0,0,0,0,0,0,0,0,0,0,0,0,0,0,0,0,0,0.9448,0.9449,0,0.9524,0.9525,0.9526,0.9447,0.9444,0.9441,0.9438,0.9516,0.9521,0.9526,0,0,0,0,0,0,0,0,0,0,0,0,0,0.9234,0.9239,0.9448,0.9449,0.945,0.9524,0.9525,0.9526,0.9448,0.9444,0.944,0.9437,0.9514,0.952,0.9526,0,0,0,0,0,0,0,0,0,0,0,0,0,0.932,0.924,0.9448,0.942,0.9418,0.9524,0.9525,0.9526,0.9449,0.9444,0.9439,0.9435,0.9513,0.952,0.9527,0.9664,0,0,0.9549,0.9553,0,0,0,0,0,0,0,0,0.9316,0.9328,0.9423,0.9422,0.942,0.9471,0.9478,0.9572,0.945,0.9437,0.9438,0.9433,0.9505,0.9513,0.9537,0.9667,0.9671,0.955,0.9555,0.9558,0.956,0,0,0,0,0,0,0,0.931,0.9325,0.9478,0.9425,0.9423,0.9403,0.941,0.9495,0.9496,0.9438,0.9432,0.9442,0.9503,0.953,0.9538,0.9672,0.955,0.9556,0.9561,0.9564,0.9913,0.9918,0,0,0,0,0,0,0.9307,0.932,0.9476,0.948,0.9356,0.9411,0.9419,0.946,0.9495,0.9495,0.9446,0.9438,0.952,0.953,0.9541,0.9699,0.9558,0.9565,0.9569,0.9908,0.9914,0.9919,0,0,0,0,0,0,0.9303,0.9322,0.9473,0.9399,0.9416,0.9419,0.9466,0.9464,0.949,0.9501,0.95,0.9473,0.9516,0.953,0.9632,0.9701,0.9568,0.9575,0.9902,0.991,0.9917,1.002,0,0,0,0,0,0,0.9297,0.9321,0.9373,0.9401,0.9421,0.9565,0.947,0.9468,0.9503,0.9494,0.9526,0.9527,0.9514,0.9622,0.964,0.9709,0.958,0.9896,0.9906,0.9914,1.001,1.003,1.0047,0,0,0,0,0,0.9289,0.9401,0.9377,0.9396,0.9487,0.9569,0.958,0.9562,0.9509,0.9561,0.9567,0.9526,0.9691,0.9633,0.9653,0.9725,0.9892,0.9903,0.9914,1.0002,1.0026,1.0046,0,0,0,0,0,0,0.9383,0.9404,0.9377,0.9501,0.9533,0.9555,0.9621,0.9589,0.9638,0.9627,0.9603,0.9611,0.9718,0.9732,0.9667,0.9856,0.9782,0.9798,0.9843,0.9866,0.9884,0.9877,0.9586,0,0,0,0,0,0.9418,0.9483,0.9498,0.9605,0.9623,0.9619,0.9654,0.9637,0.967,0.9684,0.9698,0.9731,0.9789,0.9829,0.9884,1.0012,1.0016,1.0071,1.0089,1.0104,1.0117,1.0181,1.0205,0.9955,0.9955,0.9955,0,0,0.9491,0.951,0.9553,0.9624,0.9647,0.9714,0.9631,0.9706,0.9755,0.9695,0.9791,0.9803,0.9838,0.9953,1.0004,0.9967,1.0187,1.0118,1.013,1.0135,1.0195,1.0219,1.024,0.9963,0.9961,0.996,0,0,0.9657,0.968,0.9769,0.9793,0.9829,0.9825,0.9847,0.9873,0.9878,0.9974,0.9929,0.9986,1.0089,1.0114,1.0141,1.0312,1.0275,1.0331,1.0425,1.0488,1.0507,1.0525,1.0582,1.0604,1.0344,1.0345,1.0345,0,0.9743,0.9842,0.982,0.9896,0.9927,0.9875,0.9964,0.9989,1.0041,1.0063,1.0022,1.0146,1.0167,1.0284,1.0326,1.0351,1.0372,1.0327,1.0507,1.0524,1.0539,1.0594,1.0616,1.0351,1.035,1.035,1.0349,0,0.9944,1.0012,1.0081,1.013,1.0169,1.0252,1.0241,1.0283,1.0262,1.0262,1.0358,1.0381,1.0437,1.0464,1.0446,1.0578,1.0554,1.051,1.0435,1.057,1.062,1.0641,1.036,1.0358,1.0356,1.0354,0,0,1.0172,1.0205,1.0231,1.025,1.0284,1.0336,1.0415,1.0469,1.0504,1.0541,1.0605,1.0691,1.0649,1.0679,1.0663,1.0719,1.0848,1.0667,1.0667,1.0697,1.0991,1.1021,1.1046,1.0824,1.0828,1.0831,1.0986,0,1.0336,1.0472,1.0453,1.0584,1.0645,1.0594,1.0663,1.069,1.0692,1.0743,1.0745,1.0804,1.0747,1.0764,1.0817,1.0821,1.0906,1.081,1.088,1.0883,1.087,1.1073,1.1107,1.1253,1.1007,1.101,1.1012,0,1.0546,1.0588,1.0724,1.0744,1.0769,1.0831,1.0876,1.0927,1.0955,1.0952,1.0984,1.0956,1.1033,1.0957,1.1061,1.0996,1.1024,1.103,1.1035,1.1039,1.0954,1.108,1.1299,1.132,1.1044,1.1042,1.1039,0,1.0694,1.0785,1.0877,1.0896,1.0922,1.0966,1.0979,1.1003,1.1035,1.1076,1.1095,1.1145,1.1171,1.1209,1.1194,1.1141,1.1299,1.1224,1.1296,1.1297,1.1331,1.1328,1.1555,1.1354,1.1353,1.1353,1.1353,0,1.0877,1.0962,1.0943,1.0999,1.1091,1.1068,1.1159,1.1166,1.1187,1.1243,1.1203,1.1256,1.1234,1.1285,1.1275,1.136,1.1373,1.1371,1.1366,1.1373,1.1372,1.1389,1.1377,1.1359,1.1358,1.1356,1.1355,0,1.1058,1.1049,1.1145,1.1161,1.1167,1.1234,1.1247,1.1299,1.1296,1.1367,1.1382,1.1378,1.1435,1.1424,1.1489,1.1481,1.1586,1.1571,1.1576,1.1572,1.1643,1.1635,1.1886,1.1916,1.1699,1.1701,1.1703,0,1.1174,1.1237,1.1259,1.1293,1.1308,1.1364,1.1395,1.1374,1.1409,1.1444,1.1491,1.1544,1.1586,1.1679,1.1682,1.1729,1.1713,1.1797,1.172,1.1723,1.171,1.1705,1.1709,1.1812,1.1814,1.1817,1.1818,0,1.138,1.1372,1.1419,1.1463,1.1502,1.1536,1.1567,1.1597,1.1578,1.1618,1.1675,1.1707,1.1771,1.1823,1.1867,1.1879,1.1845,1.1843,1.1861,1.1867,1.1866,1.1863,1.1615,1.1837,1.1835,1.1833,1.1832,1.1832,1.153,1.1582,1.1604,1.1656,1.1676,1.1705,1.1753,1.1755,1.1802,1.1852,1.1836,1.1901,1.1924,1.1978,1.1995,1.2044,1.2013,1.2041,1.2047,1.2054,1.206,1.186,1.2053,1.2052,1.2052,1.2051,1.2051,0,1.1731,1.1741,1.179,1.1832,1.1873,1.1836,1.1867,1.1903,1.196,1.1985,1.2025,1.2089,1.2139,1.2144,1.219,1.2228,1.2213,1.2241,1.2236,1.2239,1.2088,1.2066,1.2252,1.2252,1.2252,1.2252,1.2252,1.2251,1.184,1.1924,1.1917,1.201,1.202,1.2082,1.2102,1.2127,1.2146,1.2218,1.2259,1.2262,1.2277,1.2324,1.2367,1.2367,1.2384,1.2417,1.2411,1.227,1.225,1.2231,1.2209,1.2422,1.2423,1.2557,1.2558,1.2559]}]]